Hamilton, OH

6:23 AM EDT on March 29, 2017 (GMT -0400)
Butler County Regional

Weather History for KHAO - March, 2014

Change the Weather History Date:

Sunday, March 30, 2014

  Actual Average (KLUK) Record (KLUK)
Temperature  
Mean Temperature 42 °F -  
Max Temperature 55 °F 60 °F 83 °F (1977)
Min Temperature 28 °F 40 °F 20 °F (1964)
Degree Days  
Heating Degree Days 24    
Moisture  
Dew Point 28 °F    
Average Humidity 65    
Maximum Humidity 85    
Minimum Humidity 37    
Precipitation  
Precipitation 0.00 in - - ()
Sea Level Pressure  
Sea Level Pressure 30.19 in    
Wind  
Wind Speed 7 mph (NW)    
Max Wind Speed 10 mph    
Max Gust Speed 17 mph    
Visibility 10 miles    
Events      
Averages and records for this station are not official NWS values.
T = Trace of Precipitation, MM = Missing Value Source: NWS Daily Summary

Daily Weather History Graph

Daily Weather History Graph

Search for Another Location

Airport or City:

Trip Planner

Search our weather history database for the weather conditions in past years. The results will help you decide how hot, cold, wet, or windy it might be!

Date:

Astronomy

Mar. 30, 2014 Rise Set
Actual Time 7:25 AM EDT 8:00 PM EDT
Civil Twilight 6:58 AM EDT 8:27 PM EDT
Nautical Twilight 6:26 AM EDT 8:58 PM EDT
Astronomical Twilight 5:54 AM EDT 9:31 PM EDT
Moon 7:10 AM EDT (3/30) 8:11 PM EDT (3/30)
Length of Visible Light 13h 28m
Length of Day
12h 34m
Waning Crescent, 0% of the Moon is Illuminated
Mar 30
Waning Crescent
Mar 30
New
Apr 7
First Quarter
Apr 15
Full
Apr 22
Last Quarter

Hourly Weather History & Observations

Time (EDT) Temp. Windchill Dew Point Humidity Pressure Visibility Wind Dir Wind Speed Gust Speed Precip Events Conditions
12:53 AM 36.0 °F 29.6 °F 28.9 °F 76% 30.17 in 10.0 mi NNW 8.1 mph - N/A   Mostly Cloudy
1:29 AM 36.0 °F 29.0 °F 28.9 °F 76% 30.15 in 10.0 mi NNW 9.2 mph 17.3 mph N/A   Scattered Clouds
1:36 AM 36.0 °F 30.3 °F 28.9 °F 76% 30.15 in 10.0 mi NNW 6.9 mph - N/A   Mostly Cloudy
1:53 AM 35.1 °F 29.3 °F 28.9 °F 78% 30.17 in 10.0 mi NNW 6.9 mph - N/A   Scattered Clouds
2:53 AM 34.0 °F 27.2 °F 27.0 °F 75% 30.17 in 10.0 mi NNW 8.1 mph - N/A   Clear
3:53 AM 33.1 °F 26.1 °F 26.1 °F 75% 30.17 in 10.0 mi NNW 8.1 mph - N/A   Clear
4:53 AM 30.9 °F 25.2 °F 25.0 °F 79% 30.17 in 10.0 mi NW 5.8 mph - N/A   Clear
5:53 AM 30.9 °F 26.2 °F 24.1 °F 76% 30.19 in 10.0 mi NW 4.6 mph - N/A   Clear
6:53 AM 28.9 °F 21.9 °F 23.0 °F 78% 30.22 in 10.0 mi NW 6.9 mph - N/A   Partly Cloudy
7:53 AM 30.0 °F 24.1 °F 24.1 °F 79% 30.24 in 10.0 mi NW 5.8 mph - N/A   Clear
8:53 AM 33.1 °F 26.9 °F 26.1 °F 75% 30.25 in 10.0 mi North 6.9 mph - N/A   Clear
9:53 AM 35.1 °F 27.9 °F 26.1 °F 70% 30.25 in 10.0 mi NNW 9.2 mph - N/A   Clear
10:53 AM 37.9 °F 35.5 °F 28.0 °F 68% 30.24 in 10.0 mi Variable 3.5 mph - N/A   Clear
11:53 AM 41.0 °F 34.7 °F 28.9 °F 62% 30.26 in 10.0 mi NNW 10.4 mph - N/A   Clear
12:53 PM 45.0 °F 39.7 °F 30.0 °F 56% 30.25 in 10.0 mi NW 10.4 mph - N/A   Clear
1:53 PM 48.0 °F - 28.9 °F 48% 30.23 in 10.0 mi NW 6.9 mph - N/A   Clear
2:53 PM 51.1 °F - 28.9 °F 43% 30.20 in 10.0 mi NW 9.2 mph - N/A   Clear
3:53 PM 54.0 °F - 28.9 °F 38% 30.18 in 10.0 mi WNW 10.4 mph - N/A   Clear
4:53 PM 54.0 °F - 28.9 °F 38% 30.17 in 10.0 mi WNW 10.4 mph - N/A   Clear
5:53 PM 55.0 °F - 28.9 °F 37% 30.16 in 10.0 mi NW 10.4 mph - N/A   Clear
6:53 PM 54.0 °F - 28.0 °F 37% 30.16 in 10.0 mi NW 6.9 mph - N/A   Clear
7:53 PM 48.9 °F - 28.9 °F 46% 30.17 in 10.0 mi NW 5.8 mph - N/A   Clear
8:53 PM 42.1 °F - 33.1 °F 70% 30.18 in 10.0 mi Calm Calm - N/A   Clear
9:53 PM 39.0 °F - 32.0 °F 76% 30.19 in 10.0 mi Calm Calm - N/A   Clear
10:53 PM 37.0 °F - 30.9 °F 79% 30.18 in 10.0 mi Calm Calm - N/A   Clear
11:53 PM 35.1 °F - 30.9 °F 85% 30.19 in 10.0 mi Calm Calm - N/A   Clear